Regional Weather Roundup
Issued by NWS Little Rock, AR

Home | Current Version | Previous Version | Graphics & Text | Print | Product List | Glossary On
Versions: 1 2 3 4 5 6 7 8 9 10 11 12 13 14 15 16 17 18 19 20 21 22 23 24 25 26 27 28 29 30 31 32 33 34 35 36 37
000
ASUS44 KLZK 231205
RWRLZK

WEATHER ROUNDUP FOR ARKANSAS
NATIONAL WEATHER SERVICE LITTLE ROCK AR
700 AM CDT THU OCT 23 2014

NOTE: "FAIR" INDICATES FEW OR NO CLOUDS BELOW 12,000 FEET WITH NO
SIGNIFICANT WEATHER AND/OR OBSTRUCTIONS TO VISIBILITY.

ARZ001-003-010-029-231300-
NORTHWEST ARKANSAS

CITY           SKY/WX    TMP DP  RH WIND       PRES   REMARKS
FAYETTEVILLE   CLOUDY    52  50  93 CALM      30.17R
6HR MIN TEMP:  49; 6HR MAX TEMP:  53;

FORT SMITH     CLOUDY    54  48  80 E8        30.17R
6HR MIN TEMP:  54; 6HR MAX TEMP:  57;

HARRISON       CLOUDY    48  47  96 SE5       30.19R
6HR MIN TEMP:  47; 6HR MAX TEMP:  50;

BENTONVILLE    CLOUDY    54  46  76 S3        30.17R
6HR MIN TEMP:  54; 6HR MAX TEMP:  55;

ROGERS         CLOUDY    54  49  83 SE6       30.18R
6HR MIN TEMP:  54; 6HR MAX TEMP:  56;

SILOAM SPGS    CLOUDY    55  46  71 SE3       30.17R
6HR MIN TEMP:  55; 6HR MAX TEMP:  57;

HIGHFILL       CLOUDY    55  51  86 E3        30.16R
6HR MIN TEMP:  54; 6HR MAX TEMP:  57;

SPRINGDALE     CLOUDY    54  48  82 SE7       30.18R
$$

ARZ004-005-016-231300-
NORTH CENTRAL ARKANSAS

CITY           SKY/WX    TMP DP  RH WIND       PRES   REMARKS
BATESVILLE     MOCLDY    43  39  87 CALM      30.20F
6HR MIN TEMP:  43; 6HR MAX TEMP:  45;

FLIPPIN        CLOUDY    45  39  81 CALM      30.20S
6HR MIN TEMP:  43; 6HR MAX TEMP:  46;

MTN HOME       CLOUDY    46  44  93 E3        30.18F
6HR MIN TEMP:  44; 6HR MAX TEMP:  50;

$$

ARZ040-041-231300-
WEST CENTRAL ARKANSAS

CITY           SKY/WX    TMP DP  RH WIND       PRES   REMARKS
MENA           CLOUDY    54  52  94 CALM      30.18S
MOUNT IDA      CLOUDY    50  49  96 W3        30.16R
6HR MIN TEMP:  48; 6HR MAX TEMP:  51;

$$

ARZ009-017-025-026-028-231300-
NORTHEAST ARKANSAS

CITY           SKY/WX    TMP DP  RH WIND       PRES   REMARKS
CORNING        FAIR      41  41 100 N3        30.22S
JONESBORO      MOCLDY    45  42  89 CALM      30.20S
6HR MIN TEMP:  44; 6HR MAX TEMP:  48;

NEWPORT        PTCLDY    42  42 100 N6        30.23R
6HR MIN TEMP:  42; 6HR MAX TEMP:  47;

WALNUT RIDGE   MOCLDY    43  37  81 N5        30.20S
6HR MIN TEMP:  41; 6HR MAX TEMP:  46;

BLYTHEVILLE    PTCLDY    41  39  93 N5        30.21R
6HR MIN TEMP:  39; 6HR MAX TEMP:  46;

$$

ARZ022-023-033-042-044-231300-
CENTRAL ARKANSAS

CITY           SKY/WX    TMP DP  RH WIND       PRES   REMARKS
LITTLE ROCK    MOCLDY    47  42  83 CALM      30.20R
6HR MIN TEMP:  46; 6HR MAX TEMP:  52;

N LITTLE ROCK    N/A     49  45  88 NE6       30.20R
6HR MIN TEMP:  47; 6HR MAX TEMP:  53;

JACKSONVILLE   MOCLDY    44  41  91 CALM      30.19S
6HR MIN TEMP:  41; 6HR MAX TEMP:  44;

SEARCY         PTCLDY    42  41  96 CALM      30.21S
6HR MIN TEMP:  41; 6HR MAX TEMP:  47;

HOT SPRINGS    CLOUDY    50  47  89 CALM      30.19S
6HR MIN TEMP:  48; 6HR MAX TEMP:  51;

RUSSELLVILLE   CLOUDY    49  47  93 CALM      30.19S
6HR MIN TEMP:  47; 6HR MAX TEMP:  50;

$$

ARZ036-231300-
EAST ARKANSAS

CITY           SKY/WX    TMP DP  RH WIND       PRES   REMARKS
WEST MEMPHIS   PTCLDY    42  42 100 N3        30.19R
6HR MIN TEMP:  42; 6HR MAX TEMP:  48;

$$

ARZ050-053-066-070-073-231300-
SOUTHWEST ARKANSAS

CITY           SKY/WX    TMP DP  RH WIND       PRES   REMARKS
ARKADELPHIA    FAIR      51  47  86 NE5       30.18S
6HR MIN TEMP:  49; 6HR MAX TEMP:  51; 6HR PCP: TRACE;

CAMDEN         CLOUDY    48  45  87 NE3       30.16S
TEXARKANA      CLOUDY    53  50  89 NE3       30.17R
6HR MIN TEMP:  52; 6HR MAX TEMP:  56;

EL DORADO      CLOUDY    49  46  90 NE6       30.15S
6HR MIN TEMP:  47; 6HR MAX TEMP:  51;

DE QUEEN       CLOUDY    53  51  93 CALM      30.16R
6HR MIN TEMP:  53; 6HR MAX TEMP:  56;

$$

ARZ056-057-069-231300-
SOUTHEAST ARKANSAS

CITY           SKY/WX    TMP DP  RH WIND       PRES   REMARKS
PINE BLUFF     MOCLDY    48  44  86 N3        30.19R
6HR MIN TEMP:  45; 6HR MAX TEMP:  50;

STUTTGART      PTCLDY    46  41  81 NE5       30.20R
6HR MIN TEMP:  45; 6HR MAX TEMP:  46;

MONTICELLO     MOCLDY    48  44  86 CALM      30.17S
6HR MIN TEMP:  45; 6HR MAX TEMP:  50;


$$





USA.gov is the U.S. government's official web portal to all federal, state and local government web resources and services.